TimeCST,TemperatureF,Dew PointF,Humidity,Sea Level PressureIn,VisibilityMPH,Wind Direction,Wind SpeedMPH,Gust SpeedMPH,PrecipitationIn,Events,Conditions,WindDirDegrees,DateUTC
12:15 AM,46.4,26.6,46,30.13,10.0,South,4.6,-,N/A,,Clear,180,2012-11-30 06:15:00
12:35 AM,46.4,28.4,50,30.13,10.0,South,5.8,-,N/A,,Clear,180,2012-11-30 06:35:00
12:55 AM,46.4,28.4,50,30.13,10.0,South,6.9,-,N/A,,Clear,170,2012-11-30 06:55:00
1:15 AM,46.4,28.4,50,30.12,10.0,South,6.9,-,N/A,,Clear,170,2012-11-30 07:15:00
1:35 AM,44.6,28.4,53,30.12,10.0,SSE,6.9,-,N/A,,Clear,160,2012-11-30 07:35:00
2:15 AM,44.6,30.2,57,30.12,10.0,SSE,5.8,-,N/A,,Clear,160,2012-11-30 08:15:00
2:35 AM,46.4,30.2,53,30.12,10.0,SSE,5.8,-,N/A,,Clear,160,2012-11-30 08:35:00
2:56 AM,46.4,30.2,53,30.11,10.0,South,5.8,-,N/A,,Clear,170,2012-11-30 08:56:00
3:15 AM,44.6,30.2,57,30.11,10.0,South,5.8,-,N/A,,Clear,170,2012-11-30 09:15:00
3:35 AM,46.4,30.2,53,30.11,10.0,South,5.8,-,N/A,,Clear,170,2012-11-30 09:35:00
3:56 AM,44.6,30.2,57,30.11,10.0,SSE,5.8,-,N/A,,Clear,160,2012-11-30 09:56:00
4:15 AM,44.6,30.2,57,30.10,10.0,South,6.9,-,N/A,,Clear,170,2012-11-30 10:15:00
4:55 AM,44.6,32.0,61,30.10,10.0,South,5.8,-,N/A,,Clear,180,2012-11-30 10:55:00
5:15 AM,44.6,33.8,66,30.10,10.0,South,5.8,-,N/A,,Clear,180,2012-11-30 11:15:00
5:35 AM,46.4,33.8,62,30.10,10.0,South,5.8,-,N/A,,Clear,170,2012-11-30 11:35:00
5:55 AM,46.4,33.8,62,30.10,10.0,South,5.8,-,N/A,,Clear,190,2012-11-30 11:55:00
6:35 AM,48.2,35.6,62,30.11,10.0,South,4.6,-,N/A,,Clear,190,2012-11-30 12:35:00
6:55 AM,48.2,35.6,62,30.11,10.0,South,5.8,-,N/A,,Clear,180,2012-11-30 12:55:00
7:15 AM,48.2,35.6,62,30.12,10.0,South,5.8,-,N/A,,Clear,190,2012-11-30 13:15:00
7:35 AM,48.2,37.4,66,30.12,10.0,South,5.8,-,N/A,,Clear,180,2012-11-30 13:35:00
7:55 AM,50.0,37.4,62,30.12,10.0,South,5.8,-,N/A,,Clear,180,2012-11-30 13:55:00
8:15 AM,51.8,37.4,58,30.13,10.0,South,6.9,-,N/A,,Clear,190,2012-11-30 14:15:00
8:55 AM,55.4,39.2,54,30.13,10.0,SSW,5.8,-,N/A,,Clear,200,2012-11-30 14:55:00
9:15 AM,57.2,42.8,59,30.14,10.0,SSW,9.2,-,N/A,,Clear,200,2012-11-30 15:15:00
9:35 AM,57.2,42.8,59,30.14,10.0,SSW,8.1,-,N/A,,Clear,200,2012-11-30 15:35:00
9:56 AM,59.0,44.6,59,30.14,10.0,SSW,10.4,-,N/A,,Clear,210,2012-11-30 15:56:00
10:15 AM,60.8,46.4,59,30.14,10.0,SSW,11.5,-,N/A,,Clear,210,2012-11-30 16:15:00
10:35 AM,62.6,46.4,55,30.14,10.0,SSW,10.4,16.1,N/A,,Clear,200,2012-11-30 16:35:00
10:55 AM,62.6,48.2,59,30.13,10.0,SSW,9.2,-,N/A,,Clear,200,2012-11-30 16:55:00
11:15 AM,62.6,48.2,59,30.13,10.0,SSW,11.5,-,N/A,,Clear,210,2012-11-30 17:15:00
11:35 AM,64.4,48.2,56,30.11,10.0,SSW,9.2,-,N/A,,Clear,200,2012-11-30 17:35:00
11:55 AM,64.4,48.2,56,30.10,10.0,SW,11.5,-,N/A,,Clear,220,2012-11-30 17:55:00
12:16 PM,64.4,48.2,56,30.09,10.0,South,11.5,16.1,N/A,,Clear,180,2012-11-30 18:16:00
12:35 PM,66.2,48.2,52,30.08,10.0,South,9.2,-,N/A,,Clear,190,2012-11-30 18:35:00
12:55 PM,66.2,50.0,56,30.08,10.0,SSW,11.5,-,N/A,,Clear,200,2012-11-30 18:55:00
1:15 PM,66.2,50.0,56,30.07,10.0,SSW,8.1,-,N/A,,Clear,200,2012-11-30 19:15:00
1:35 PM,66.2,50.0,56,30.07,10.0,South,9.2,-,N/A,,Clear,180,2012-11-30 19:35:00
1:55 PM,66.2,50.0,56,30.07,10.0,South,8.1,-,N/A,,Clear,180,2012-11-30 19:55:00
2:15 PM,66.2,48.2,52,30.06,10.0,SSW,12.7,-,N/A,,Clear,210,2012-11-30 20:15:00
2:55 PM,66.2,50.0,56,30.05,10.0,SSW,8.1,-,N/A,,Clear,200,2012-11-30 20:55:00
3:15 PM,66.2,48.2,52,30.05,10.0,South,5.8,-,N/A,,Clear,180,2012-11-30 21:15:00
3:35 PM,66.2,48.2,52,30.05,10.0,South,5.8,-,N/A,,Clear,180,2012-11-30 21:35:00
4:15 PM,64.4,48.2,56,30.06,10.0,South,6.9,-,N/A,,Clear,180,2012-11-30 22:15:00
4:35 PM,62.6,48.2,59,30.06,10.0,South,5.8,-,N/A,,Clear,180,2012-11-30 22:35:00
5:15 PM,57.2,48.2,72,30.05,10.0,SSE,4.6,-,N/A,,Clear,150,2012-11-30 23:15:00
5:35 PM,55.4,46.4,72,30.05,10.0,SSE,5.8,-,N/A,,Clear,150,2012-11-30 23:35:00
6:15 PM,55.4,48.2,77,30.05,10.0,SE,6.9,-,N/A,,Clear,140,2012-12-01 00:15:00
6:35 PM,57.2,48.2,72,30.05,10.0,SSE,6.9,-,N/A,,Clear,150,2012-12-01 00:35:00
7:15 PM,53.6,46.4,77,30.05,10.0,SSE,5.8,-,N/A,,Clear,150,2012-12-01 01:15:00
7:35 PM,53.6,46.4,77,30.05,10.0,SSE,5.8,-,N/A,,Clear,150,2012-12-01 01:35:00
7:55 PM,53.6,48.2,82,30.05,10.0,SSE,6.9,-,N/A,,Clear,160,2012-12-01 01:55:00
8:15 PM,55.4,48.2,77,30.05,10.0,SSE,8.1,-,N/A,,Clear,160,2012-12-01 02:15:00
8:35 PM,55.4,48.2,77,30.05,10.0,South,10.4,-,N/A,,Clear,180,2012-12-01 02:35:00
8:55 PM,57.2,50.0,77,30.05,10.0,South,10.4,-,N/A,,Clear,180,2012-12-01 02:55:00
9:35 PM,55.4,50.0,82,30.06,10.0,South,8.1,-,N/A,,Clear,170,2012-12-01 03:35:00
10:15 PM,53.6,50.0,88,30.06,7.0,South,5.8,-,N/A,,Clear,170,2012-12-01 04:15:00
10:35 PM,53.6,50.0,88,30.05,7.0,South,4.6,-,N/A,,Clear,170,2012-12-01 04:35:00
10:55 PM,53.6,48.2,82,30.06,6.0,South,4.6,-,N/A,,Clear,180,2012-12-01 04:55:00
11:15 PM,55.4,50.0,82,30.07,7.0,South,4.6,-,N/A,,Clear,180,2012-12-01 05:15:00
11:55 PM,50.0,46.4,87,30.07,4.0,SSW,3.5,-,N/A,,Clear,200,2012-12-01 05:55:00